INTELSAT 22 (IS-22)

Last updated on Fri Dec 19 2025 00:02:50 GMT+0000 (Coordinated Universal Time)

1 38098U 12011A 25352.56825470 -.00000033 00000+0 00000+0 0 9992 2 38098 0.0164 100.4627 0001818 183.0382 80.6113 1.00270235 5378
UTC large
Height (km)
Speed (km/s)
/
Latitude / Longitude
Inclination (degrees)
Orbital Period (minutes)
Azimuth
Elevation
Range (km)
Doppler Factor

Next 0 passes for location: London (51.5072 / 0.1276)

Sorry there are no passes over London.